This demonstration page uses our WeatherBlox Daily Observations layout. Learn more.

Left ArrowRight Arrow

Hourly Observations for September 10, 2021

Temp ( °F °C ) Dew Point ( °F °C ) Humidity (%) Winds ( mph kmh ) Pressure ( in mb ) Visibility ( mi km ) Precip ( " mm )
12:52 am 00:52 Clear 67 19.4 57 13.9 71 71 SE 9 15 29.97 1015 10 16 0.00 0.00
1:52 am 01:52 Clear 66 18.9 56 13.3 70 70 SE 8 13 29.96 1014 10 16 0.00 0.00
2:52 am 02:52 Clear 64 17.8 56 13.3 75 75 SE 8 13 29.95 1014 10 16 0.00 0.00
3:52 am 03:52 Clear 65 18.3 56 13.3 73 73 SE 7 11 29.94 1014 10 16 0.00 0.00
4:52 am 04:52 Clear 64 17.8 56 13.3 75 75 SE 7 11 29.93 1014 10 16 0.00 0.00
5:52 am 05:52 Clear 64 17.8 56 13.3 75 75 ESE 8 13 29.93 1013 10 16 0.00 0.00
6:52 am 06:52 Clear 63 17.2 56 13.3 78 78 ESE 8 13 29.92 1013 10 16 0.00 0.00
7:52 am 07:52 Sunny 64 17.8 57 13.9 78 78 SE 8 13 29.93 1013 10 16 0.00 0.00
8:52 am 08:52 Sunny 67 19.4 57 13.9 71 71 SSE 10 17 29.93 1013 10 16 0.00 0.00
9:52 am 09:52 Sunny 69 20.6 58 14.4 68 68 SSE 7 11 29.92 1013 10 16 0.00 0.00
10:52 am 10:52 Sunny 73 22.8 61 16.1 66 66 SSE 6 9 29.92 1013 10 16 0.00 0.00
11:52 am 11:52 Sunny 77 25 63 17.2 62 62 VRB 3 6 29.91 1013 10 16 0.00 0.00
12:52 pm 12:52 Partly Cloudy 79 26.1 63 17.2 58 58 SSW 6 9 29.88 1012 10 16 0.00 0.00
1:52 pm 13:52 Mostly Cloudy 83 28.3 64 17.8 53 53 SE 5 7 29.88 1012 10 16 0.00 0.00
2:52 pm 14:52 Mostly Cloudy 85 29.4 66 18.9 53 53 Calm 29.87 1012 10 16 0.00 0.00
3:52 pm 15:52 Mostly Cloudy 86 30 66 18.9 51 51 SSW 3 6 29.85 1011 10 16 0.00 0.00
4:52 pm 16:52 Mostly Cloudy 86 30 67 19.4 53 53 SSW 3 6 29.84 1011 10 16 0.00 0.00
5:52 pm 17:52 Mostly Cloudy 85 29.4 66 18.9 53 53 SSE 5 7 29.85 1011 10 16 0.00 0.00
6:52 pm 18:52 Mostly Cloudy 83 28.3 68 20 61 61 SSE 6 9 29.85 1011 10 16 0.00 0.00
7:52 pm 19:52 Mostly Cloudy 79 26.1 70 21.1 74 74 E 6 9 29.86 1011 10 16 0.00 0.00
8:52 pm 20:52 Mostly Cloudy 74 23.3 69 20.6 85 85 Calm 29.87 1012 10 16 0.00 0.00
9:52 pm 21:52 Mostly Cloudy 73 22.8 70 21.1 90 90 Calm 29.87 1012 10 16 0.00 0.00
10:52 pm 22:52 Mostly Cloudy 75 23.9 69 20.6 82 82 Calm 29.86 1011 10 16 0.00 0.00
11:52 pm 23:52 Mostly Cloudy 68 20 67 19.4 96 96 Calm 29.85 1011 10 16 0.00 0.00

Powered by AerisWeather